EW3060 Weather Reports


Display with metric or nautical units.
time (UTC)temp
F
wind
direction
speed
MPH
gust
MPH
rain 1hr
in
rain 24hr
in
rain mn
in
humidity
%
barometer
mb
20260506171546 63 51 0.0 1.0 0.00 0.00 0.00 47 1013.2
20260506170047 61 281 0.0 2.0 0.00 0.00 0.00 49 1013.2
20260506164546 59 282 0.0 0.0 0.00 0.00 0.00 51 1013.2
20260506163043 60 29 0.0 0.0 0.00 0.00 0.00 50 1013.3
20260506161539 58 4 0.0 1.0 0.00 0.00 0.00 54 1013.4
20260506160037 58 314 0.0 0.0 0.00 0.00 0.00 54 1013.4
20260506154536 58 304 0.0 0.0 0.00 0.00 0.00 53 1013.3
20260506153031 56 281 0.0 1.0 0.00 0.00 0.00 56 1013.2
20260506151529 55 189 0.0 0.0 0.00 0.00 0.00 58 1013.2
20260506150027 54 189 0.0 0.0 0.00 0.00 0.00 61 1013.1
20260506144522 52 359 0.0 0.0 0.00 0.00 0.00 64 1013.1
20260506143016 50 188 0.0 0.0 0.00 0.00 0.00 67 1013.0
20260506141513 49 359 0.0 1.0 0.00 0.00 0.00 69 1012.9
20260506140015 49 359 0.0 0.0 0.00 0.00 0.00 69 1013.0
20260506134508 48 359 0.0 0.0 0.00 0.00 0.00 71 1012.8
20260506133006 47 359 0.0 0.0 0.00 0.00 0.00 73 1012.7
20260506131505 46 214 0.0 0.0 0.00 0.00 0.00 74 1012.6
20260506130004 46 208 0.0 0.0 0.00 0.00 0.00 75 1012.4
20260506124501 45 224 0.0 0.0 0.00 0.00 0.00 77 1012.1
20260506123102 45 233 0.0 0.0 0.00 0.00 0.00 78 1012.0
20260506121559 45 233 0.0 0.0 0.00 0.00 0.00 78 1012.0
20260506120058 45 233 0.0 0.0 0.00 0.00 0.00 78 1012.1
20260506114601 45 232 0.0 0.0 0.00 0.00 0.00 79 1012.0
20260506113055 45 232 0.0 0.0 0.00 0.00 0.00 79 1012.0
20260506111553 45 235 0.0 0.0 0.00 0.00 0.00 79 1011.9
20260506110052 45 243 0.0 0.0 0.00 0.00 0.00 79 1011.9
20260506104557 45 228 0.0 0.0 0.00 0.00 0.00 79 1011.8
20260506103054 45 237 0.0 0.0 0.00 0.00 0.00 78 1011.7
20260506101548 45 239 0.0 0.0 0.00 0.00 0.00 79 1011.7
20260506100047 45 237 0.0 0.0 0.00 0.00 0.00 79 1011.7
20260506094546 46 239 0.0 1.0 0.00 0.00 0.00 78 1011.6
20260506093044 46 247 0.0 0.0 0.00 0.00 0.00 78 1011.7
20260506091551 46 239 0.0 0.0 0.00 0.00 0.00 78 1011.5
20260506090042 46 239 0.0 0.0 0.00 0.00 0.00 78 1011.5
20260506084546 46 237 0.0 0.0 0.00 0.00 0.00 77 1011.4
20260506083038 47 225 0.0 0.0 0.00 0.00 0.00 75 1011.5
20260506081537 47 231 0.0 3.0 0.00 0.00 0.00 75 1011.5
20260506073034 47 212 0.0 0.0 0.00 0.00 0.00 75 1011.7
20260506071532 48 222 0.0 1.0 0.00 0.00 0.00 75 1011.6
20260506061526 48 208 0.0 2.0 0.00 0.00 0.00 74 1011.3
20260506044522 49 214 0.0 4.0 0.00 0.00 0.00 72 1010.4
20260506043016 49 218 0.0 2.0 0.00 0.00 0.00 71 1010.3
20260506041516 49 212 0.0 2.0 0.00 0.00 0.00 71 1010.1
20260506040021 50 219 0.0 2.0 0.00 0.00 0.00 70 1009.9
20260506034519 50 221 0.0 2.0 0.00 0.00 0.00 70 1009.6
20260506033010 50 359 0.0 4.0 0.00 0.00 0.00 69 1009.5
20260506031509 51 231 0.0 3.0 0.00 0.00 0.00 68 1009.3
20260506030022 51 210 0.0 3.0 0.00 0.00 0.00 67 1009.0
20260506024510 51 359 1.0 3.0 0.00 0.00 0.00 66 1008.7
20260506023011 52 359 1.0 3.0 0.00 0.00 0.00 65 1008.5
20260506021504 52 210 1.0 4.0 0.00 0.00 0.00 64 1008.2
20260506020003 53 218 1.0 2.0 0.00 0.00 0.00 62 1008.2
20260506014504 54 214 1.0 3.0 0.00 0.00 0.00 62 1007.8
20260506013002 54 200 1.0 4.0 0.00 0.00 0.00 62 1007.6
20260506011502 54 183 2.0 5.0 0.00 0.00 0.00 60 1007.5
20260506010002 55 188 1.0 3.0 0.00 0.00 0.00 58 1007.6
20260506004504 56 228 1.0 5.0 0.00 0.00 0.00 58 1007.4
20260506003001 56 223 2.0 4.0 0.00 0.00 0.00 57 1007.0
20260506001502 57 195 1.0 12.0 0.00 0.00 0.00 56 1007.0
20260505234600 56 208 1.0 3.0 0.00 0.00 0.00 57 1007.0
20260505233059 56 217 1.0 3.0 0.00 0.00 0.00 55 1007.0
20260505231559 57 227 1.0 5.0 0.00 0.00 0.00 54 1006.9
20260505230107 57 193 1.0 4.0 0.00 0.00 0.00 54 1007.0
20260505224556 58 223 1.0 3.0 0.00 0.00 0.00 56 1007.3
20260505223107 56 191 1.0 4.0 0.00 0.00 0.00 58 1007.2
20260505221554 57 191 1.0 5.0 0.00 0.00 0.00 60 1007.4
20260505220053 57 359 1.0 4.0 0.00 0.00 0.00 58 1007.5
20260505214552 57 359 1.0 4.0 0.00 0.00 0.00 54 1007.6
20260505213057 57 201 2.0 8.0 0.00 0.00 0.00 54 1007.7
20260505211549 57 172 1.0 3.0 0.00 0.00 0.00 56 1007.7
20260505210046 56 172 1.0 8.0 0.00 0.00 0.00 58 1007.9
20260505204544 56 250 1.0 5.0 0.00 0.00 0.00 59 1007.9
20260505203050 55 206 1.0 5.0 0.00 0.00 0.00 62 1008.1
20260505201543 55 193 2.0 6.0 0.00 0.00 0.00 59 1008.1
20260505200042 55 210 2.0 3.0 0.00 0.00 0.00 61 1008.2
20260505194547 54 212 2.0 7.0 0.00 0.00 0.00 61 1008.3
20260505193040 55 181 2.0 6.0 0.00 0.00 0.00 59 1008.4
20260505191540 54 224 1.0 3.0 0.00 0.00 0.00 60 1008.6
20260505190043 54 359 1.0 5.0 0.00 0.00 0.00 58 1008.5
20260505184538 54 204 2.0 4.0 0.00 0.00 0.00 62 1008.4
20260505183037 54 178 1.0 3.0 0.00 0.00 0.00 63 1008.4
20260505181536 54 200 2.0 3.0 0.00 0.00 0.00 61 1008.2
20260505180035 54 228 1.0 3.0 0.00 0.00 0.00 62 1008.3
20260505174532 54 180 1.0 4.0 0.00 0.00 0.00 64 1008.1
20260505173040 53 165 1.0 3.0 0.00 0.00 0.00 64 1007.9